Starlink 5525

operational
NORAD ID: 57218 Int'l Des: 2023-094 Owner: SPXS Country: US Constellation: starlink
LEOCIRCULAR

Starlink 5525について

説明を読み込み中...

リアルタイム位置

3D地球を読み込み中...

次回通過

高度履歴

Altitude vs Time

uPlot chart will show altitude changes over time

軌道要素

1 57218U 23094A 25258.70886141 -.00000075 00000-0 95048-5 0 9992
2 57218 43.0032 261.5305 0001113 270.8588 89.2127 15.02535603120791
Epoch: Sep 15, 2025 • Age: 17 hours

現在のステータス

高度 566.8 km
速度 7.58 km/s
衛星直下点 -30.72°S, 67.43°E
打ち上げ日 Jul 7, 2023
運用期間 2.1 years
タイプ internet

技術仕様

分類 Payload
質量 305.00 kg
乾燥質量 290.00 kg
総質量 305.00 kg
長さ 0.20 m
直径 2.80 m
スパン 9.00 m
形状 Box + pan
製造者 SPXS
バスタイプ Starlink
フェーズステータス In Orbit
所有者/国 SPXS/US

大規模コンステレーション

Loading constellations...